"startDT [UTC]","vpos","CH4 [ppm]","stdev(CH4) [ppm]","CO2 [ppm]","stdev(CO2) [ppm]","H2O_reported [%]","stdev(H2O_reported)","CavityPressure [torr]","CavityTemp [C]","OutletValve","CH4_dry [ppm]","CO2_dry [ppm]","DasTemp [C]","EtalonTemp [C]","WarmBoxTemp [C]","MPVPosition","T_ECpre [C]","T_EC1 [C]","T_EC2 [C]","p_inlet [hPa]","p_in [hPa]","p_out [hPa]","T_inlet [C]","RH_inlet [%]","dwpt_inlet [C]","T_vent [C]","RH_vent [%]","dwpt_vent [C]","flow_vent [l min-1]","flow_inlet [l min-1]","dwpt_sample [C]","T_room [C]"
2016-12-26 00:00:00,0.0,2.02352,0.00036,416.756,0.034,0.0338,0.0018,140.001,45.000,31773.97851,2.02416,416.924,33.319,45.072,45.000,0.00,0.06,-272.87,-272.91,-4,535,-951,18.6,1.3,-35.9,19.1,1.4,-35.2,0.48,1.96,-22.3,25.3
2016-12-26 00:01:00,0.0,2.02369,0.00045,416.780,0.029,0.0349,0.0020,139.999,45.000,31774.05562,2.02443,416.955,33.313,45.072,45.000,0.00,0.06,-272.87,-272.91,-4,535,-951,18.6,1.3,-36.2,19.1,1.4,-35.4,0.48,1.96,-22.3,25.3
2016-12-26 00:02:00,0.0,2.02352,0.00026,416.757,0.035,0.0343,0.0018,139.994,45.000,31771.35677,2.02417,416.929,33.313,45.072,45.000,0.00,0.06,-272.88,-272.92,-4,535,-951,18.6,1.3,-36.3,19.1,1.4,-35.3,0.48,1.96,-22.3,25.3
2016-12-26 00:03:00,0.0,2.02234,0.00069,416.681,0.047,0.0339,0.0019,139.998,45.000,31772.41002,2.02307,416.852,33.314,45.072,45.000,0.00,0.06,-272.88,-272.91,-4,535,-951,18.6,1.3,-36.2,19.1,1.3,-35.4,0.48,1.96,-22.3,25.3
2016-12-26 00:04:00,0.0,2.02199,0.00073,416.687,0.030,0.0343,0.0021,139.998,45.000,31773.24277,2.02267,416.858,33.314,45.072,45.000,0.00,0.06,-272.88,-272.90,-4,535,-951,18.6,1.3,-36.2,19.1,1.4,-35.3,0.48,1.96,-22.3,25.3
2016-12-26 00:05:00,0.0,2.02236,0.00033,416.694,0.036,0.0340,0.0026,139.999,45.000,31771.70413,2.02302,416.863,33.313,45.072,45.000,0.00,0.06,-272.88,-272.91,-4,535,-951,18.6,1.3,-36.2,19.1,1.4,-35.3,0.48,1.96,-22.3,25.3
2016-12-26 00:06:00,0.0,2.02255,0.00042,416.715,0.028,0.0340,0.0018,140.001,45.000,31770.97924,2.02325,416.887,33.313,45.072,45.000,0.00,0.06,-272.88,-272.92,-3,535,-951,18.6,1.3,-36.2,19.1,1.4,-35.4,0.48,1.95,-22.3,25.3
2016-12-26 00:07:00,0.0,2.02104,0.00091,416.573,0.070,0.0335,0.0018,140.001,45.000,31772.01342,2.02177,416.743,33.313,45.072,45.000,0.00,0.06,-272.87,-272.91,-3,535,-951,18.7,1.2,-36.4,19.1,1.3,-35.6,0.48,1.96,-22.3,25.3
2016-12-26 00:08:00,0.0,2.01974,0.00060,416.467,0.038,0.0330,0.0017,140.000,45.000,31769.05696,2.02040,416.633,33.313,45.072,45.000,0.00,0.06,-272.87,-272.91,-3,535,-951,18.6,1.2,-36.5,19.1,1.3,-35.8,0.48,1.96,-22.3,25.3
2016-12-26 00:09:00,0.0,2.01935,0.00041,416.462,0.033,0.0337,0.0017,139.999,45.000,31768.62041,2.02003,416.631,33.281,45.072,45.000,0.00,0.06,-272.88,-272.92,-3,535,-951,18.7,1.3,-36.3,19.1,1.3,-35.6,0.48,1.96,-22.3,25.3
2016-12-26 00:10:00,0.0,2.01996,0.00048,416.456,0.022,0.0339,0.0012,140.000,45.000,31766.54315,2.02061,416.626,33.252,45.072,45.000,0.00,0.06,-272.89,-272.91,-4,535,-951,18.7,1.3,-36.2,19.1,1.3,-35.6,0.48,1.96,-22.3,25.3
2016-12-26 00:11:00,0.0,2.01978,0.00051,416.488,0.042,0.0344,0.0014,139.998,45.000,31766.58613,2.02048,416.659,33.251,45.072,45.000,0.00,0.06,-272.87,-272.91,-4,535,-951,18.7,1.3,-36.2,19.1,1.3,-35.6,0.48,1.96,-22.3,25.3
2016-12-26 00:12:00,0.0,2.01922,0.00042,416.542,0.038,0.0351,0.0022,139.999,45.000,31768.30919,2.01993,416.717,33.253,45.072,45.000,0.00,0.06,-272.88,-272.91,-4,535,-951,18.7,1.3,-36.1,19.1,1.3,-35.4,0.48,1.95,-22.3,25.3
2016-12-26 00:13:00,0.0,2.01906,0.00044,416.500,0.043,0.0364,0.0014,139.999,45.000,31769.71237,2.01980,416.683,33.248,45.073,45.000,0.00,0.06,-272.88,-272.92,-4,535,-951,18.6,1.3,-35.7,19.1,1.4,-35.2,0.48,1.96,-22.3,25.3
2016-12-26 00:14:00,0.0,2.01986,0.00051,416.482,0.034,0.0355,0.0022,139.999,45.000,31771.07028,2.02054,416.659,33.248,45.073,45.000,0.00,0.06,-272.88,-272.91,-4,535,-951,18.6,1.4,-35.6,19.1,1.4,-35.0,0.48,1.96,-22.3,25.3
2016-12-26 00:15:00,0.0,2.01991,0.00035,416.518,0.063,0.0338,0.0025,140.002,45.000,31772.76374,2.02058,416.685,33.250,45.073,45.000,0.00,0.06,-272.87,-272.91,-4,535,-951,18.6,1.3,-36.2,19.1,1.4,-35.2,0.48,1.95,-22.3,25.3
2016-12-26 00:16:00,0.0,2.02039,0.00042,416.523,0.053,0.0341,0.0016,139.998,45.000,31770.44098,2.02105,416.695,33.250,45.073,45.000,0.00,0.06,-272.88,-272.91,-4,535,-951,18.6,1.3,-36.3,19.1,1.4,-35.3,0.48,1.96,-22.3,25.3
2016-12-26 00:17:00,0.0,2.02123,0.00052,416.714,0.069,0.0328,0.0015,140.000,45.000,31771.16862,2.02182,416.874,33.257,45.072,45.000,0.00,0.06,-272.88,-272.91,-4,535,-951,18.6,1.2,-36.6,19.1,1.3,-35.6,0.48,1.95,-22.3,25.3
2016-12-26 00:18:00,0.0,2.02192,0.00047,416.838,0.029,0.0331,0.0017,139.999,45.000,31770.92919,2.02260,417.003,33.252,45.072,45.000,0.00,0.06,-272.88,-272.90,-4,535,-951,18.6,1.2,-36.5,19.1,1.3,-35.9,0.48,1.96,-22.3,25.3
2016-12-26 00:19:00,0.0,2.02156,0.00045,416.826,0.033,0.0339,0.0018,140.000,45.000,31770.42001,2.02224,416.995,33.246,45.072,45.000,0.00,0.06,-272.88,-272.91,-4,535,-951,18.6,1.3,-36.4,19.1,1.3,-35.7,0.48,1.95,-22.3,25.3
2016-12-26 00:20:00,0.0,2.02163,0.00032,416.836,0.045,0.0347,0.0022,139.999,45.000,31770.85760,2.02230,417.012,33.249,45.072,45.000,0.00,0.06,-272.88,-272.91,-4,535,-951,18.6,1.3,-36.1,19.1,1.3,-35.4,0.48,1.96,-22.3,25.3
2016-12-26 00:21:00,0.0,2.02170,0.00043,416.855,0.040,0.0344,0.0022,140.001,45.000,31772.31602,2.02242,417.026,33.252,45.072,45.000,0.00,0.06,-272.88,-272.91,-4,535,-951,18.7,1.3,-36.0,19.1,1.4,-35.4,0.48,1.96,-22.3,25.3
2016-12-26 00:22:00,0.0,2.02173,0.00042,416.903,0.032,0.0347,0.0019,139.998,45.000,31772.65917,2.02240,417.075,33.286,45.072,45.000,0.00,0.06,-272.87,-272.91,-4,535,-951,18.7,1.3,-36.0,19.1,1.4,-35.4,0.48,1.96,-22.3,25.3
2016-12-26 00:23:00,0.0,2.02221,0.00042,416.974,0.025,0.0339,0.0016,139.999,45.000,31773.87275,2.02287,417.144,33.304,45.072,45.000,0.00,0.06,-272.88,-272.92,-4,535,-951,18.7,1.3,-36.0,19.1,1.4,-35.3,0.48,1.96,-22.3,25.3
2016-12-26 00:24:00,0.0,2.02198,0.00046,416.982,0.032,0.0345,0.0021,140.000,45.000,31774.52958,2.02269,417.154,33.312,45.072,45.000,0.00,0.06,-272.87,-272.91,-4,535,-951,18.7,1.3,-36.0,19.1,1.3,-35.4,0.48,1.96,-22.3,25.3
2016-12-26 00:25:00,0.0,2.02154,0.00037,416.970,0.030,0.0348,0.0022,139.999,45.000,31775.30864,2.02225,417.144,33.342,45.072,45.000,0.00,0.06,-272.87,-272.91,-4,535,-951,18.7,1.3,-36.0,19.1,1.3,-35.4,0.48,1.96,-22.3,25.3
2016-12-26 00:26:00,0.0,2.02107,0.00042,416.939,0.037,0.0348,0.0019,139.998,45.000,31775.54872,2.02175,417.115,33.377,45.072,44.999,0.00,0.06,-272.88,-272.92,-4,535,-951,18.7,1.3,-35.9,19.1,1.4,-35.3,0.48,1.96,-22.3,25.3
2016-12-26 00:27:00,0.0,2.02129,0.00042,416.960,0.039,0.0350,0.0024,139.997,45.000,31775.14114,2.02199,417.134,33.396,45.071,44.999,0.00,0.06,-272.88,-272.91,-4,535,-951,18.7,1.3,-35.8,19.1,1.4,-35.3,0.48,1.96,-22.3,25.3
2016-12-26 00:28:00,0.0,2.02086,0.00029,416.975,0.032,0.0343,0.0020,139.997,45.000,31773.84598,2.02154,417.145,33.433,45.072,44.999,0.00,0.06,-272.88,-272.91,-4,535,-951,18.7,1.3,-36.0,19.1,1.4,-35.2,0.48,1.96,-22.3,25.3
2016-12-26 00:29:00,0.0,2.02080,0.00043,416.987,0.043,0.0344,0.0015,139.999,45.000,31773.64573,2.02151,417.160,33.420,45.071,44.999,0.00,0.06,-272.89,-272.91,-4,535,-951,18.7,1.3,-36.0,19.1,1.4,-35.3,0.48,1.95,-22.3,25.3
2016-12-26 00:30:00,0.0,2.02073,0.00038,416.941,0.039,0.0344,0.0019,140.001,45.000,31773.96962,2.02140,417.114,33.416,45.072,44.999,0.00,0.06,-272.89,-272.92,-4,535,-951,18.7,1.3,-36.2,19.1,1.3,-35.4,0.48,1.96,-22.3,25.3
2016-12-26 00:31:00,0.0,2.02067,0.00042,416.978,0.024,0.0349,0.0019,140.001,45.000,31774.34823,2.02137,417.153,33.413,45.072,44.999,0.00,0.06,-272.87,-272.91,-4,535,-951,18.7,1.3,-36.2,19.1,1.3,-35.5,0.48,1.96,-22.3,25.3
2016-12-26 00:32:00,0.0,2.02072,0.00022,416.969,0.034,0.0339,0.0015,140.000,45.000,31774.32031,2.02139,417.138,33.388,45.072,45.000,0.00,0.06,-272.87,-272.91,-4,535,-951,18.7,1.3,-36.2,19.1,1.3,-35.4,0.48,1.96,-22.3,25.3
2016-12-26 00:33:00,0.0,2.02039,0.00035,416.979,0.028,0.0335,0.0019,140.000,45.000,31774.36337,2.02107,417.146,33.353,45.072,45.000,0.00,0.06,-272.88,-272.91,-4,535,-951,18.7,1.3,-36.3,19.1,1.3,-35.6,0.48,1.95,-22.3,25.3
2016-12-26 00:34:00,0.0,2.02028,0.00030,417.017,0.027,0.0324,0.0021,139.999,45.000,31773.22796,2.02093,417.179,33.332,45.073,45.001,0.00,0.06,-272.88,-272.91,-4,535,-951,18.7,1.2,-36.6,19.1,1.3,-35.9,0.48,1.96,-22.3,25.3
2016-12-26 00:35:00,0.0,2.01993,0.00048,417.030,0.029,0.0320,0.0014,140.000,45.000,31775.57889,2.02056,417.190,33.358,45.073,45.001,0.00,0.06,-272.87,-272.91,-4,535,-951,18.7,1.2,-36.9,19.1,1.3,-36.1,0.48,1.96,-22.3,25.3
2016-12-26 00:36:00,0.0,2.01979,0.00043,417.010,0.045,0.0322,0.0017,139.998,45.000,31772.81132,2.02045,417.171,33.374,45.073,45.000,0.00,0.06,-272.88,-272.91,-4,535,-951,18.7,1.2,-36.7,19.1,1.3,-36.1,0.48,1.95,-22.3,25.3
2016-12-26 00:37:00,0.0,2.01993,0.00056,417.043,0.028,0.0330,0.0015,139.997,45.000,31773.11508,2.02058,417.208,33.376,45.073,45.001,0.00,0.06,-272.88,-272.91,-4,535,-951,18.7,1.2,-36.6,19.1,1.3,-35.9,0.48,1.95,-22.3,25.3
2016-12-26 00:38:00,0.0,2.02032,0.00045,417.030,0.064,0.0342,0.0016,140.001,45.000,31773.90013,2.02100,417.203,33.376,45.072,45.000,0.00,0.06,-272.87,-272.91,-4,535,-951,18.7,1.2,-36.4,19.1,1.3,-36.0,0.48,1.96,-22.3,25.3
2016-12-26 00:39:00,0.0,2.02066,0.00032,416.994,0.047,0.0339,0.0015,139.999,45.000,31773.89981,2.02130,417.163,33.407,45.072,45.000,0.00,0.06,-272.88,-272.91,-4,535,-951,18.7,1.2,-36.4,19.1,1.3,-35.8,0.48,1.96,-22.3,25.3
2016-12-26 00:40:00,0.0,2.02089,0.00035,417.022,0.053,0.0327,0.0015,139.997,45.000,31772.41927,2.02157,417.186,33.422,45.072,45.000,0.00,0.06,-272.88,-272.92,-4,535,-951,18.7,1.3,-36.4,19.1,1.3,-35.8,0.48,1.96,-22.3,25.3
2016-12-26 00:41:00,0.0,2.02169,0.00052,416.982,0.033,0.0336,0.0018,139.997,45.000,31771.24342,2.02231,417.151,33.435,45.072,45.000,0.00,0.06,-272.88,-272.91,-4,535,-951,18.7,1.3,-36.4,19.1,1.3,-35.8,0.48,1.96,-22.3,25.3
2016-12-26 00:42:00,0.0,2.02183,0.00036,416.935,0.031,0.0331,0.0019,139.999,45.000,31773.91184,2.02248,417.101,33.433,45.072,45.000,0.00,0.06,-272.88,-272.91,-4,535,-951,18.7,1.2,-36.5,19.1,1.3,-35.8,0.48,1.96,-22.3,25.3
2016-12-26 00:43:00,0.0,2.02156,0.00032,416.908,0.035,0.0332,0.0015,140.000,45.000,31775.42820,2.02224,417.075,33.437,45.072,45.000,0.00,0.06,-272.88,-272.92,-3,535,-951,18.7,1.3,-36.4,19.1,1.3,-35.8,0.48,1.96,-22.3,25.3
2016-12-26 00:44:00,0.0,2.02177,0.00037,416.939,0.027,0.0335,0.0022,140.001,45.000,31775.67051,2.02242,417.106,33.399,45.072,45.000,0.00,0.06,-272.88,-272.91,-3,535,-951,18.7,1.3,-36.3,19.1,1.3,-35.7,0.48,1.96,-22.3,25.3
2016-12-26 00:45:00,0.0,2.02186,0.00037,416.914,0.030,0.0342,0.0019,139.997,45.000,31776.18384,2.02255,417.087,33.403,45.072,45.000,0.00,0.06,-272.88,-272.90,-4,535,-951,18.7,1.3,-36.4,19.1,1.3,-35.7,0.48,1.96,-22.3,25.3
2016-12-26 00:46:00,0.0,2.02213,0.00032,416.911,0.034,0.0337,0.0019,139.998,45.000,31775.55705,2.02279,417.079,33.421,45.072,45.000,0.00,0.06,-272.89,-272.92,-4,535,-951,18.7,1.2,-36.5,19.1,1.3,-35.8,0.48,1.96,-22.3,25.3
2016-12-26 00:47:00,0.0,2.02208,0.00027,416.923,0.028,0.0333,0.0020,140.000,45.000,31777.78968,2.02274,417.090,33.433,45.072,45.000,0.00,0.06,-272.88,-272.91,-4,535,-951,18.7,1.2,-36.7,19.1,1.3,-35.9,0.48,1.95,-22.3,25.3
2016-12-26 00:48:00,0.0,2.02205,0.00056,416.950,0.034,0.0329,0.0014,139.998,45.000,31775.19258,2.02269,417.115,33.417,45.072,45.000,0.00,0.06,-272.87,-272.90,-4,535,-951,18.7,1.2,-36.9,19.1,1.3,-36.1,0.48,1.96,-22.3,25.3
2016-12-26 00:49:00,0.0,2.02188,0.00037,416.944,0.030,0.0316,0.0011,140.000,45.000,31775.68765,2.02253,417.101,33.396,45.072,45.000,0.00,0.06,-272.88,-272.91,-4,535,-951,18.7,1.2,-36.8,19.1,1.2,-36.1,0.48,1.96,-22.3,25.3
2016-12-26 00:50:00,0.0,2.02149,0.00034,416.942,0.030,0.0329,0.0016,139.999,45.000,31775.76562,2.02215,417.108,33.377,45.073,45.000,0.00,0.06,-272.88,-272.92,-4,535,-951,18.7,1.2,-36.7,19.1,1.2,-36.2,0.48,1.96,-22.3,25.3
2016-12-26 00:51:00,0.0,2.02139,0.00035,416.915,0.026,0.0335,0.0016,139.996,45.000,31775.88476,2.02205,417.083,33.375,45.073,45.001,0.00,0.06,-272.87,-272.92,-4,535,-951,18.7,1.2,-36.6,19.2,1.3,-36.0,0.48,1.96,-22.3,25.3
2016-12-26 00:52:00,0.0,2.02122,0.00029,416.923,0.030,0.0339,0.0016,139.997,45.000,31775.67450,2.02193,417.092,33.373,45.073,45.000,0.00,0.06,-272.87,-272.91,-4,535,-951,18.7,1.2,-36.4,19.2,1.3,-35.9,0.48,1.96,-22.3,25.3
2016-12-26 00:53:00,0.0,2.02044,0.00092,416.921,0.030,0.0338,0.0014,140.001,45.000,31778.58044,2.02114,417.091,33.375,45.073,45.000,0.00,0.06,-272.88,-272.92,-4,535,-951,18.7,1.3,-36.4,19.1,1.3,-35.9,0.48,1.96,-22.3,25.3
2016-12-26 00:54:00,0.0,2.01841,0.00052,416.930,0.041,0.0334,0.0014,139.999,45.000,31778.70977,2.01908,417.098,33.381,45.073,45.000,0.00,0.06,-272.88,-272.91,-4,535,-951,18.7,1.2,-36.4,19.1,1.3,-35.8,0.48,1.96,-22.3,25.3
2016-12-26 00:55:00,0.0,2.01962,0.00075,416.987,0.038,0.0328,0.0017,139.996,45.000,31776.40574,2.02033,417.150,33.397,45.072,45.000,0.00,0.06,-272.88,-272.90,-4,535,-951,18.7,1.2,-36.4,19.1,1.3,-35.7,0.48,1.96,-22.3,25.3
2016-12-26 00:56:00,0.0,2.01895,0.00048,416.995,0.036,0.0331,0.0020,140.000,45.000,31778.89912,2.01953,417.160,33.388,45.072,45.000,0.00,0.06,-272.88,-272.91,-4,535,-951,18.7,1.2,-36.6,19.1,1.3,-35.9,0.48,1.96,-22.3,25.3
2016-12-26 00:57:00,0.0,2.01983,0.00049,416.996,0.036,0.0319,0.0016,139.999,45.000,31777.91429,2.02042,417.156,33.376,45.072,45.000,0.00,0.06,-272.89,-272.91,-4,535,-951,18.7,1.2,-36.8,19.1,1.3,-36.0,0.48,1.96,-22.3,25.3
2016-12-26 00:58:00,0.0,2.02014,0.00048,417.030,0.030,0.0312,0.0019,139.998,45.000,31778.37564,2.02080,417.186,33.377,45.072,45.000,0.00,0.06,-272.88,-272.91,-4,535,-951,18.7,1.2,-37.2,19.1,1.2,-36.4,0.48,1.96,-22.3,25.3
2016-12-26 00:59:00,0.0,2.01865,0.00042,417.057,0.042,0.0302,0.0019,139.999,45.000,31779.17519,2.01932,417.209,33.403,45.072,45.000,0.00,0.06,-272.88,-272.91,-4,535,-951,18.7,1.1,-37.5,19.2,1.2,-36.6,0.48,1.96,-22.3,25.3
2016-12-26 01:00:00,0.0,2.01829,0.00057,417.087,0.039,0.0305,0.0015,139.997,45.000,31777.54881,2.01891,417.240,33.428,45.072,45.000,0.00,0.06,-272.89,-272.92,-4,535,-951,18.7,1.1,-37.5,19.2,1.2,-36.8,0.48,1.95,-22.3,25.3
2016-12-26 01:01:00,0.0,2.01718,0.00036,417.069,0.033,0.0304,0.0018,139.996,45.000,31777.20098,2.01778,417.221,33.435,45.072,45.000,0.00,0.06,-272.87,-272.91,-4,535,-951,18.7,1.1,-37.6,19.2,1.2,-36.8,0.48,1.96,-22.3,25.4
2016-12-26 01:02:00,0.0,2.01693,0.00047,417.070,0.025,0.0309,0.0017,139.999,45.000,31776.85650,2.01758,417.227,33.438,45.072,45.000,0.00,0.06,-272.87,-272.90,-4,535,-951,18.7,1.1,-37.4,19.2,1.2,-36.8,0.48,1.95,-22.3,25.3
2016-12-26 01:03:00,0.0,2.01690,0.00043,417.077,0.046,0.0307,0.0013,139.997,45.000,31775.64642,2.01749,417.230,33.427,45.072,45.000,0.00,0.06,-272.88,-272.91,-4,535,-951,18.7,1.1,-37.2,19.2,1.2,-36.6,0.48,1.96,-22.3,25.4
2016-12-26 01:04:00,0.0,2.01708,0.00026,417.046,0.032,0.0307,0.0013,140.000,45.000,31777.80137,2.01768,417.199,33.410,45.072,45.000,0.00,0.06,-272.88,-272.91,-4,535,-951,18.7,1.2,-37.1,19.2,1.2,-36.6,0.48,1.96,-22.3,25.4
2016-12-26 01:05:00,0.0,2.01707,0.00046,417.052,0.032,0.0318,0.0016,139.997,45.000,31777.08669,2.01770,417.211,33.437,45.072,45.000,0.00,0.06,-272.87,-272.91,-4,535,-951,18.7,1.2,-37.1,19.2,1.2,-36.4,0.48,1.96,-22.3,25.3
2016-12-26 01:06:00,0.0,2.01681,0.00044,417.032,0.032,0.0313,0.0018,139.999,45.000,31777.60286,2.01744,417.189,33.438,45.072,45.000,0.00,0.06,-272.88,-272.91,-4,535,-951,18.7,1.2,-37.1,19.2,1.2,-36.3,0.48,1.96,-22.3,25.4
2016-12-26 01:07:00,0.0,2.01681,0.00047,417.047,0.034,0.0312,0.0018,140.000,45.000,31775.59322,2.01742,417.203,33.448,45.072,45.000,0.00,0.06,-272.88,-272.92,-4,535,-951,18.7,1.2,-37.1,19.2,1.2,-36.5,0.48,1.96,-22.3,25.4
2016-12-26 01:08:00,0.0,2.01721,0.00042,417.062,0.031,0.0318,0.0017,139.999,45.000,31776.41555,2.01783,417.222,33.474,45.072,45.000,0.00,0.06,-272.87,-272.91,-4,535,-951,18.7,1.2,-37.1,19.2,1.2,-36.6,0.48,1.95,-22.3,25.4
2016-12-26 01:09:00,0.0,2.01757,0.00037,417.073,0.036,0.0315,0.0019,140.001,45.000,31775.55157,2.01820,417.231,33.459,45.072,45.000,0.00,0.06,-272.87,-272.91,-4,535,-951,18.7,1.2,-37.1,19.2,1.2,-36.4,0.48,1.95,-22.3,25.3
2016-12-26 01:10:00,0.0,2.01838,0.00078,417.076,0.042,0.0316,0.0014,140.001,45.000,31775.58360,2.01896,417.234,33.443,45.072,45.000,0.00,0.06,-272.89,-272.92,-4,535,-951,18.7,1.2,-37.1,19.2,1.2,-36.5,0.48,1.96,-22.3,25.4
2016-12-26 01:11:00,0.0,2.01703,0.00111,416.980,0.064,0.0305,0.0019,139.999,45.000,31774.61308,2.01771,417.134,33.437,45.072,45.000,0.00,0.06,-272.88,-272.91,-4,535,-951,18.7,1.1,-37.4,19.2,1.2,-36.6,0.48,1.95,-22.3,25.3
2016-12-26 01:12:00,0.0,2.01592,0.00115,416.838,0.090,0.0297,0.0017,140.001,45.000,31773.60808,2.01652,416.987,33.436,45.072,45.000,0.00,0.06,-272.87,-272.90,-4,535,-951,18.7,1.1,-37.6,19.2,1.2,-36.8,0.48,1.96,-22.3,25.3
2016-12-26 01:13:00,0.0,2.01634,0.00026,416.972,0.043,0.0303,0.0016,140.000,45.000,31773.28111,2.01694,417.122,33.440,45.072,45.000,0.00,0.06,-272.88,-272.91,-4,535,-951,18.7,1.1,-37.5,19.2,1.2,-36.8,0.48,1.95,-22.3,25.4
2016-12-26 01:14:00,0.0,2.01697,0.00046,417.016,0.029,0.0309,0.0015,139.996,45.000,31773.79364,2.01754,417.169,33.440,45.072,45.000,0.00,0.06,-272.88,-272.92,-4,535,-951,18.7,1.1,-37.4,19.2,1.2,-36.8,0.48,1.96,-22.3,25.3
2016-12-26 01:15:00,0.0,2.01732,0.00041,417.031,0.032,0.0308,0.0014,139.998,45.000,31773.49461,2.01795,417.186,33.443,45.072,45.000,0.00,0.06,-272.87,-272.91,-4,535,-951,18.7,1.2,-37.2,19.2,1.2,-36.6,0.48,1.96,-22.3,25.4
2016-12-26 01:16:00,0.0,2.01585,0.00081,416.939,0.080,0.0316,0.0024,139.995,45.000,31771.97171,2.01655,417.101,33.470,45.072,45.000,0.00,0.06,-272.88,-272.91,-4,535,-951,18.7,1.1,-37.3,19.2,1.2,-36.6,0.48,1.95,-22.3,25.4
2016-12-26 01:17:00,0.0,2.01485,0.00040,416.896,0.053,0.0303,0.0016,139.998,45.000,31773.06375,2.01542,417.047,33.481,45.072,45.000,0.00,0.06,-272.88,-272.92,-4,535,-951,18.7,1.1,-37.2,19.2,1.2,-36.6,0.48,1.96,-22.3,25.4
2016-12-26 01:18:00,0.0,2.01486,0.00063,416.768,0.075,0.0294,0.0019,140.002,45.000,31774.31810,2.01544,416.916,33.444,45.072,45.000,0.00,0.06,-272.87,-272.91,-4,535,-951,18.7,1.1,-37.3,19.2,1.2,-36.6,0.48,1.95,-22.3,25.4
2016-12-26 01:19:00,0.0,2.01657,0.00108,416.860,0.046,0.0310,0.0022,139.999,45.000,31772.90760,2.01709,417.012,33.464,45.072,45.000,0.00,0.06,-272.87,-272.91,-4,535,-951,18.7,1.1,-37.3,19.2,1.2,-36.6,0.48,1.95,-22.3,25.4
2016-12-26 01:20:00,0.0,2.01761,0.00058,416.993,0.051,0.0307,0.0019,140.000,45.000,31773.09947,2.01825,417.145,33.483,45.072,45.000,0.00,0.06,-272.88,-272.92,-4,535,-951,18.7,1.1,-37.3,19.2,1.2,-36.6,0.48,1.96,-22.3,25.4
2016-12-26 01:21:00,0.0,2.01800,0.00057,417.080,0.041,0.0310,0.0017,140.000,45.000,31772.63501,2.01858,417.235,33.497,45.072,45.000,0.00,0.06,-272.88,-272.91,-4,535,-951,18.7,1.1,-37.6,19.2,1.2,-36.7,0.48,1.95,-22.3,25.3
2016-12-26 01:22:00,0.0,2.01807,0.00035,417.100,0.032,0.0307,0.0012,139.999,45.000,31771.08341,2.01871,417.255,33.500,45.072,45.000,0.00,0.06,-272.87,-272.90,-4,535,-951,18.7,1.1,-37.3,19.2,1.2,-36.9,0.48,1.96,-22.3,25.3
2016-12-26 01:23:00,0.0,2.01794,0.00038,417.128,0.029,0.0307,0.0015,139.999,45.000,31768.57306,2.01855,417.280,33.497,45.072,45.000,0.00,0.06,-272.89,-272.92,-4,535,-951,18.7,1.1,-37.3,19.2,1.2,-36.8,0.48,1.95,-22.3,25.4
2016-12-26 01:24:00,0.0,2.01794,0.00045,417.111,0.036,0.0309,0.0012,139.998,45.000,31770.36586,2.01852,417.267,33.471,45.072,45.000,0.00,0.06,-272.89,-272.91,-4,535,-951,18.7,1.1,-37.4,19.2,1.2,-36.8,0.48,1.96,-22.3,25.3
2016-12-26 01:25:00,0.0,2.01752,0.00056,417.087,0.043,0.0304,0.0028,139.998,45.000,31768.68098,2.01816,417.240,33.467,45.072,45.000,0.00,0.06,-272.88,-272.90,-4,535,-951,18.7,1.1,-37.6,19.2,1.2,-36.8,0.48,1.97,-22.3,25.3
2016-12-26 01:26:00,0.0,2.01643,0.00056,417.015,0.033,0.0301,0.0021,139.998,45.000,31771.51847,2.01705,417.167,33.468,45.072,45.000,0.00,0.06,-272.88,-272.91,-4,535,-951,18.7,1.1,-37.6,19.2,1.2,-36.8,0.48,1.96,-22.3,25.4
2016-12-26 01:27:00,0.0,2.01641,0.00030,417.015,0.028,0.0302,0.0017,140.000,45.000,31770.01128,2.01700,417.166,33.492,45.072,45.000,0.00,0.06,-272.88,-272.91,-4,535,-951,18.7,1.1,-37.3,19.2,1.2,-36.8,0.48,1.95,-22.3,25.4
2016-12-26 01:28:00,0.0,2.01617,0.00052,416.995,0.043,0.0310,0.0012,139.996,45.000,31768.57880,2.01682,417.151,33.498,45.072,45.000,0.00,0.06,-272.88,-272.91,-4,535,-951,18.7,1.1,-37.3,19.2,1.2,-36.7,0.48,1.96,-22.3,25.4
2016-12-26 01:29:00,0.0,2.01608,0.00032,416.959,0.035,0.0323,0.0014,139.997,45.000,31769.53215,2.01671,417.122,33.493,45.072,45.000,0.00,0.06,-272.87,-272.91,-4,535,-951,18.7,1.2,-37.0,19.2,1.2,-36.6,0.48,1.96,-22.3,25.4
2016-12-26 01:30:00,0.0,2.01590,0.00037,416.928,0.038,0.0324,0.0014,140.002,45.000,31772.73069,2.01655,417.090,33.443,45.072,45.000,0.00,0.06,-272.88,-272.91,-4,535,-951,18.7,1.2,-36.7,19.2,1.2,-36.3,0.48,1.95,-22.3,25.4
2016-12-26 01:31:00,0.0,2.01633,0.00055,416.969,0.030,0.0315,0.0016,139.998,45.000,31770.25781,2.01695,417.128,33.438,45.073,45.000,0.00,0.06,-272.88,-272.91,-4,535,-951,18.7,1.2,-36.8,19.2,1.2,-36.2,0.48,1.96,-22.3,25.4
2016-12-26 01:32:00,0.0,2.01684,0.00093,416.956,0.053,0.0315,0.0019,139.998,45.000,31770.73403,2.01740,417.112,33.445,45.073,45.000,0.00,0.06,-272.87,-272.90,-4,535,-951,18.7,1.2,-36.9,19.2,1.2,-36.2,0.48,1.96,-22.3,25.4
2016-12-26 01:33:00,0.0,2.01648,0.00040,416.946,0.040,0.0306,0.0020,140.001,45.000,31774.15100,2.01714,417.101,33.465,45.073,45.000,0.00,0.06,-272.88,-272.91,-3,535,-951,18.7,1.1,-37.4,19.2,1.2,-36.5,0.48,1.96,-22.3,25.4
2016-12-26 01:34:00,0.0,2.01568,0.00100,416.899,0.064,0.0296,0.0012,140.001,45.000,31774.06038,2.01628,417.048,33.491,45.072,45.000,0.00,0.06,-272.88,-272.92,-4,535,-951,18.7,1.1,-37.9,19.2,1.1,-37.0,0.48,1.96,-22.3,25.3
2016-12-26 01:35:00,0.0,2.01734,0.00050,417.039,0.032,0.0289,0.0019,140.001,45.000,31772.61092,2.01788,417.182,33.497,45.072,45.000,0.00,0.06,-272.88,-272.91,-4,535,-951,18.7,1.1,-38.1,19.2,1.1,-37.2,0.48,1.95,-22.3,25.4
2016-12-26 01:36:00,0.0,2.01746,0.00042,417.035,0.040,0.0283,0.0016,139.997,45.000,31772.84002,2.01801,417.176,33.500,45.072,45.000,0.00,0.06,-272.88,-272.91,-3,535,-951,18.7,1.0,-38.1,19.2,1.1,-37.3,0.48,1.96,-22.3,25.4
2016-12-26 01:37:00,0.0,2.01468,0.00235,416.839,0.176,0.0285,0.0009,140.000,45.000,31774.56139,2.01529,416.981,33.497,45.072,45.000,0.00,0.06,-272.88,-272.92,-3,535,-951,18.7,1.0,-38.2,19.2,1.1,-37.5,0.48,1.95,-22.3,25.4
2016-12-26 01:38:00,0.0,2.01685,0.00070,417.009,0.061,0.0296,0.0016,139.997,45.000,31772.48630,2.01743,417.156,33.494,45.072,45.000,0.00,0.06,-272.87,-272.91,-4,535,-951,18.7,1.1,-38.0,19.2,1.1,-37.3,0.48,1.96,-22.3,25.4
2016-12-26 01:39:00,0.0,2.01740,0.00033,417.031,0.040,0.0281,0.0012,140.001,45.000,31771.49347,2.01795,417.172,33.496,45.072,45.000,0.00,0.06,-272.87,-272.90,-4,535,-951,18.8,1.1,-38.0,19.2,1.1,-37.3,0.48,1.95,-22.3,25.4
2016-12-26 01:40:00,0.0,2.01633,0.00051,416.955,0.037,0.0298,0.0023,140.000,45.000,31771.85685,2.01693,417.106,33.500,45.072,45.000,0.00,0.06,-272.89,-272.91,-4,536,-951,18.8,1.1,-37.8,19.2,1.1,-37.2,0.48,1.95,-22.3,25.4
2016-12-26 01:41:00,0.0,2.01603,0.00095,416.926,0.071,0.0300,0.0018,139.999,45.000,31773.04052,2.01666,417.079,33.500,45.072,45.000,0.00,0.06,-272.88,-272.91,-4,536,-951,18.8,1.1,-37.6,19.2,1.1,-37.1,0.48,1.96,-22.3,25.4
2016-12-26 01:42:00,0.0,2.01512,0.00047,416.876,0.036,0.0307,0.0019,139.999,45.000,31773.76172,2.01576,417.028,33.508,45.072,45.000,0.00,0.06,-272.88,-272.91,-4,535,-951,18.8,1.1,-37.4,19.2,1.2,-36.8,0.48,1.96,-22.2,25.4
2016-12-26 01:43:00,0.0,2.01549,0.00068,416.907,0.043,0.0303,0.0011,140.001,45.000,31773.93343,2.01606,417.059,33.503,45.072,45.000,0.00,0.06,-272.88,-272.92,-4,535,-951,18.8,1.1,-37.3,19.2,1.2,-36.7,0.48,1.96,-22.3,25.4
2016-12-26 01:44:00,0.0,2.01541,0.00100,416.902,0.049,0.0308,0.0017,139.998,45.000,31773.14150,2.01598,417.055,33.501,45.072,45.000,0.00,0.06,-272.88,-272.92,-4,535,-951,18.8,1.1,-37.3,19.2,1.2,-36.7,0.48,1.95,-22.3,25.4
2016-12-26 01:45:00,0.0,2.01517,0.00099,416.863,0.071,0.0302,0.0021,139.999,45.000,31775.65944,2.01581,417.015,33.500,45.072,45.000,0.00,0.06,-272.87,-272.91,-4,535,-951,18.8,1.1,-37.6,19.2,1.2,-36.8,0.48,1.96,-22.2,25.4